Time,TemperatureF,DewpointF,PressureIn,WindDirection,WindDirectionDegrees,WindSpeedMPH,WindSpeedGustMPH,Humidity,HourlyPrecipIn,Conditions,Clouds,dailyrainin,SoftwareType,DateUTC
2013-02-16 00:02:00,28.0,23.0,-100.00,ESE,110,1.0,4.0,82,0.00,,,-99.99,,2013-02-16 05:02:00,
2013-02-16 00:12:00,27.0,22.0,-100.00,ENE,60,2.0,4.0,82,0.00,,,-99.99,,2013-02-16 05:12:00,
2013-02-16 00:22:00,27.0,22.0,-100.00,ENE,70,1.0,5.0,81,0.00,,,-99.99,,2013-02-16 05:22:00,
2013-02-16 00:32:00,27.0,22.0,-100.00,East,95,1.0,5.0,81,0.00,,,-99.99,,2013-02-16 05:32:00,
2013-02-16 00:42:00,27.0,22.0,-100.00,ENE,60,1.0,3.0,81,0.00,,,-99.99,,2013-02-16 05:42:00,
2013-02-16 00:52:00,27.0,22.0,-100.00,ENE,70,2.0,4.0,81,0.00,,,-99.99,,2013-02-16 05:52:00,
2013-02-16 01:02:00,27.0,22.0,-100.00,East,80,2.0,6.0,80,0.00,,,-99.99,,2013-02-16 06:02:00,
2013-02-16 01:11:00,27.0,21.0,-100.00,East,100,2.0,4.0,79,0.00,,,-99.99,,2013-02-16 06:11:00,
2013-02-16 01:21:00,27.0,21.0,-100.00,East,95,3.0,6.0,78,0.00,,,-99.99,,2013-02-16 06:21:00,
2013-02-16 01:32:00,27.0,20.0,-100.00,ESE,115,4.0,6.0,73,0.00,,,-99.99,,2013-02-16 06:32:00,
2013-02-16 01:42:00,27.0,20.0,-100.00,ESE,105,2.0,6.0,72,0.00,,,-99.99,,2013-02-16 06:42:00,
2013-02-16 01:52:00,27.0,18.0,-100.00,ESE,120,7.0,12.0,68,0.00,,,-99.99,,2013-02-16 06:52:00,
2013-02-16 02:02:00,27.0,18.0,-100.00,ESE,115,9.0,12.0,68,0.00,,,-99.99,,2013-02-16 07:02:00,
2013-02-16 02:11:00,26.0,18.0,-100.00,ESE,115,7.0,12.0,69,0.00,,,-99.99,,2013-02-16 07:11:00,
2013-02-16 02:21:00,26.0,18.0,-100.00,ESE,120,6.0,12.0,70,0.00,,,-99.99,,2013-02-16 07:21:00,
2013-02-16 02:32:00,25.0,17.0,-100.00,ESE,115,6.0,9.0,71,0.00,,,-99.99,,2013-02-16 07:32:00,
2013-02-16 02:42:00,25.0,17.0,-100.00,ESE,120,4.0,8.0,71,0.00,,,-99.99,,2013-02-16 07:42:00,
2013-02-16 02:52:00,25.0,17.0,-100.00,ESE,110,4.0,7.0,72,0.00,,,-99.99,,2013-02-16 07:52:00,
2013-02-16 03:01:00,25.0,17.0,-100.00,ESE,115,3.0,8.0,72,0.00,,,-99.99,,2013-02-16 08:01:00,
2013-02-16 03:11:00,24.0,17.0,-100.00,ESE,115,2.0,6.0,72,0.00,,,-99.99,,2013-02-16 08:11:00,
2013-02-16 03:21:00,24.0,17.0,-100.00,ESE,115,2.0,5.0,72,0.00,,,-99.99,,2013-02-16 08:21:00,
2013-02-16 03:32:00,24.0,17.0,-100.00,ESE,115,1.0,4.0,73,0.00,,,-99.99,,2013-02-16 08:32:00,
2013-02-16 03:42:00,24.0,17.0,-100.00,ESE,105,1.0,3.0,74,0.00,,,-99.99,,2013-02-16 08:42:00,
2013-02-16 03:52:00,23.0,17.0,-100.00,East,90,1.0,2.0,75,0.00,,,-99.99,,2013-02-16 08:52:00,
2013-02-16 04:02:00,23.0,16.0,-100.00,ENE,75,2.0,2.0,76,0.00,,,-99.99,,2013-02-16 09:02:00,
2013-02-16 04:11:00,22.0,17.0,-100.00,ENE,75,1.0,3.0,78,0.00,,,-99.99,,2013-02-16 09:11:00,
2013-02-16 04:21:00,22.0,17.0,-100.00,East,80,2.0,3.0,79,0.00,,,-99.99,,2013-02-16 09:21:00,
2013-02-16 04:32:00,22.0,17.0,-100.00,East,95,1.0,3.0,79,0.00,,,-99.99,,2013-02-16 09:32:00,
2013-02-16 04:42:00,22.0,17.0,-100.00,East,85,2.0,3.0,80,0.00,,,-99.99,,2013-02-16 09:42:00,
2013-02-16 04:51:00,22.0,16.0,-100.00,East,95,2.0,3.0,79,0.00,,,-99.99,,2013-02-16 09:51:00,
2013-02-16 05:01:00,22.0,16.0,-100.00,ESE,105,2.0,4.0,79,0.00,,,-99.99,,2013-02-16 10:01:00,
2013-02-16 05:11:00,22.0,16.0,-100.00,East,85,1.0,3.0,79,0.00,,,-99.99,,2013-02-16 10:11:00,
2013-02-16 05:21:00,22.0,16.0,-100.00,East,95,1.0,4.0,80,0.00,,,-99.99,,2013-02-16 10:21:00,
2013-02-16 05:32:00,21.0,16.0,-100.00,ESE,115,1.0,2.0,80,0.00,,,-99.99,,2013-02-16 10:32:00,
2013-02-16 05:42:00,21.0,16.0,-100.00,ESE,105,1.0,2.0,80,0.00,,,-99.99,,2013-02-16 10:42:00,
2013-02-16 05:51:00,21.0,16.0,-100.00,ESE,120,0.0,3.0,80,0.00,,,-99.99,,2013-02-16 10:51:00,
2013-02-16 06:02:00,21.0,16.0,-100.00,SSE,160,1.0,3.0,80,0.00,,,-99.99,,2013-02-16 11:02:00,
2013-02-16 06:11:00,21.0,16.0,-100.00,South,170,1.0,2.0,80,0.00,,,-99.99,,2013-02-16 11:11:00,
2013-02-16 06:22:00,20.0,16.0,-100.00,East,95,0.0,3.0,81,0.00,,,-99.99,,2013-02-16 11:22:00,
2013-02-16 06:32:00,20.0,16.0,-100.00,SSW,195,1.0,2.0,83,0.00,,,-99.99,,2013-02-16 11:32:00,
2013-02-16 06:42:00,20.0,16.0,-100.00,North,0,1.0,2.0,83,0.00,,,-99.99,,2013-02-16 11:42:00,
2013-02-16 06:52:00,19.0,16.0,-100.00,SSE,160,0.0,3.0,85,0.00,,,-99.99,,2013-02-16 11:52:00,
2013-02-16 07:02:00,20.0,16.0,-100.00,SE,135,1.0,2.0,85,0.00,,,-99.99,,2013-02-16 12:02:00,
2013-02-16 07:12:00,20.0,16.0,-100.00,East,100,0.0,3.0,84,0.00,,,-99.99,,2013-02-16 12:12:00,
2013-02-16 07:22:00,20.0,16.0,-100.00,South,190,1.0,4.0,83,0.00,,,-99.99,,2013-02-16 12:22:00,
2013-02-16 07:32:00,20.0,16.0,-100.00,North,355,1.0,3.0,83,0.00,,,-99.99,,2013-02-16 12:32:00,
2013-02-16 07:42:00,20.0,16.0,-100.00,SW,230,1.0,3.0,83,0.00,,,-99.99,,2013-02-16 12:42:00,
2013-02-16 07:52:00,20.0,16.0,-100.00,SSW,200,1.0,7.0,83,0.00,,,-99.99,,2013-02-16 12:52:00,
2013-02-16 08:02:00,20.0,16.0,-100.00,SSW,205,2.0,4.0,83,0.00,,,-99.99,,2013-02-16 13:02:00,
2013-02-16 08:12:00,20.0,16.0,-100.00,South,175,1.0,6.0,82,0.00,,,-99.99,,2013-02-16 13:12:00,
2013-02-16 08:21:00,21.0,16.0,-100.00,NNE,30,1.0,5.0,81,0.00,,,-99.99,,2013-02-16 13:21:00,
2013-02-16 08:32:00,21.0,16.0,-100.00,North,0,1.0,6.0,82,0.00,,,-99.99,,2013-02-16 13:32:00,
2013-02-16 08:41:00,22.0,17.0,-100.00,NNE,15,1.0,6.0,82,0.00,,,-99.99,,2013-02-16 13:41:00,
2013-02-16 08:51:00,22.0,17.0,-100.00,WNW,295,1.0,4.0,80,0.00,,,-99.99,,2013-02-16 13:51:00,
2013-02-16 09:01:00,23.0,17.0,-100.00,North,0,2.0,6.0,77,0.00,,,-99.99,,2013-02-16 14:01:00,
2013-02-16 09:11:00,23.0,17.0,-100.00,North,0,2.0,8.0,75,0.00,,,-99.99,,2013-02-16 14:11:00,
2013-02-16 09:21:00,24.0,17.0,-100.00,NNE,15,2.0,7.0,74,0.00,,,-99.99,,2013-02-16 14:21:00,
2013-02-16 09:32:00,24.0,17.0,-100.00,NNE,30,2.0,6.0,73,0.00,,,-99.99,,2013-02-16 14:32:00,
2013-02-16 09:41:00,25.0,17.0,-100.00,North,0,2.0,7.0,71,0.00,,,-99.99,,2013-02-16 14:41:00,
2013-02-16 09:52:00,25.0,17.0,-100.00,North,350,3.0,6.0,70,0.00,,,-99.99,,2013-02-16 14:52:00,
2013-02-16 10:02:00,26.0,17.0,-100.00,NNE,25,4.0,9.0,70,0.00,,,-99.99,,2013-02-16 15:02:00,
2013-02-16 10:11:00,26.0,16.0,-100.00,North,350,2.0,8.0,67,0.00,,,-99.99,,2013-02-16 15:11:00,
2013-02-16 10:22:00,27.0,17.0,-100.00,North,0,1.0,5.0,66,0.00,,,-99.99,,2013-02-16 15:22:00,
2013-02-16 10:32:00,27.0,16.0,-100.00,NNW,340,2.0,7.0,64,0.00,,,-99.99,,2013-02-16 15:32:00,
2013-02-16 10:42:00,27.0,17.0,-100.00,NNW,335,3.0,7.0,66,0.00,,,-99.99,,2013-02-16 15:42:00,
2013-02-16 10:51:00,27.0,16.0,-100.00,North,0,4.0,7.0,62,0.00,,,-99.99,,2013-02-16 15:51:00,
2013-02-16 11:01:00,27.0,15.0,-100.00,NNW,340,4.0,7.0,60,0.00,,,-99.99,,2013-02-16 16:01:00,
2013-02-16 11:11:00,28.0,15.0,-100.00,North,350,3.0,7.0,59,0.00,,,-99.99,,2013-02-16 16:11:00,
2013-02-16 11:21:00,28.0,15.0,-100.00,NNE,15,7.0,10.0,58,0.00,,,-99.99,,2013-02-16 16:21:00,
2013-02-16 11:32:00,28.0,12.0,-100.00,NNW,345,4.0,8.0,52,0.00,,,-99.99,,2013-02-16 16:32:00,
2013-02-16 11:42:00,28.0,11.0,-100.00,NNE,20,7.0,11.0,49,0.00,,,-99.99,,2013-02-16 16:42:00,
2013-02-16 11:51:00,28.0,12.0,-100.00,NNE,20,6.0,10.0,51,0.00,,,-99.99,,2013-02-16 16:51:00,
2013-02-16 12:01:00,28.0,12.0,-100.00,NE,35,5.0,10.0,51,0.00,,,-99.99,,2013-02-16 17:01:00,
2013-02-16 12:11:00,28.0,12.0,-100.00,North,350,4.0,11.0,52,0.00,,,-99.99,,2013-02-16 17:11:00,
2013-02-16 12:22:00,27.0,13.0,-100.00,North,5,3.0,10.0,54,0.00,,,-99.99,,2013-02-16 17:22:00,
2013-02-16 12:32:00,28.0,14.0,-100.00,NW,320,4.0,10.0,54,0.00,,,-99.99,,2013-02-16 17:32:00,
2013-02-16 12:42:00,27.0,15.0,-100.00,North,10,6.0,11.0,58,0.00,,,-99.99,,2013-02-16 17:42:00,
2013-02-16 12:52:00,28.0,15.0,-100.00,NNW,335,2.0,8.0,58,0.00,,,-99.99,,2013-02-16 17:52:00,
2013-02-16 13:02:00,27.0,16.0,-100.00,NNW,340,6.0,12.0,62,0.00,,,-99.99,,2013-02-16 18:02:00,
2013-02-16 13:11:00,27.0,18.0,-100.00,NE,50,4.0,9.0,68,0.55,,,-99.99,,2013-02-16 18:11:00,
2013-02-16 13:21:00,27.0,17.0,-100.00,NNW,340,6.0,11.0,67,0.00,,,-99.99,,2013-02-16 18:21:00,
2013-02-16 13:33:00,27.0,19.0,-100.00,North,0,5.0,11.0,73,0.00,,,-99.99,,2013-02-16 18:33:00,
2013-02-16 13:42:00,26.0,19.0,-100.00,North,0,6.0,11.0,75,0.55,,,-99.99,,2013-02-16 18:42:00,
2013-02-16 13:51:00,25.0,21.0,-100.00,North,0,9.0,13.0,83,4.53,,,-99.99,,2013-02-16 18:51:00,
2013-02-16 14:02:00,26.0,24.0,-100.00,North,350,6.0,9.0,89,0.00,,,-99.99,,2013-02-16 19:02:00,
2013-02-16 14:11:00,26.0,23.0,-100.00,NNW,335,4.0,10.0,88,0.00,,,-99.99,,2013-02-16 19:11:00,
2013-02-16 14:21:00,26.0,22.0,-100.00,North,0,6.0,9.0,86,0.00,,,-99.99,,2013-02-16 19:21:00,
2013-02-16 14:32:00,25.0,22.0,-100.00,East,80,6.0,10.0,88,2.83,,,-99.99,,2013-02-16 19:32:00,
2013-02-16 14:42:00,24.0,22.0,-100.00,NE,50,2.0,8.0,89,0.00,,,-99.99,,2013-02-16 19:42:00,
2013-02-16 14:52:00,26.0,23.0,-100.00,North,10,6.0,9.0,89,0.00,,,-99.99,,2013-02-16 19:52:00,
2013-02-16 15:01:00,27.0,22.0,-100.00,North,10,5.0,9.0,83,0.00,,,-99.99,,2013-02-16 20:01:00,
2013-02-16 15:11:00,27.0,22.0,-100.00,North,0,6.0,9.0,79,0.00,,,-99.99,,2013-02-16 20:11:00,
2013-02-16 15:21:00,28.0,22.0,-100.00,East,100,7.0,12.0,78,0.00,,,-99.99,,2013-02-16 20:21:00,
2013-02-16 15:32:00,28.0,19.0,-100.00,East,80,6.0,12.0,71,0.00,,,-99.99,,2013-02-16 20:32:00,
2013-02-16 15:42:00,28.0,16.0,-100.00,ENE,70,7.0,18.0,61,0.00,,,-99.99,,2013-02-16 20:42:00,
2013-02-16 15:52:00,28.0,17.0,-100.00,NNE,25,9.0,14.0,62,0.00,,,-99.99,,2013-02-16 20:52:00,
2013-02-16 16:02:00,28.0,15.0,-100.00,NE,35,14.0,19.0,59,0.00,,,-99.99,,2013-02-16 21:02:00,
2013-02-16 16:11:00,27.0,14.0,-100.00,NNE,20,9.0,17.0,57,0.00,,,-99.99,,2013-02-16 21:11:00,
2013-02-16 16:21:00,28.0,13.0,-100.00,NE,35,6.0,14.0,53,0.00,,,-99.99,,2013-02-16 21:21:00,
2013-02-16 16:32:00,27.0,17.0,-100.00,NNE,30,7.0,17.0,64,0.00,,,-99.99,,2013-02-16 21:32:00,
2013-02-16 16:42:00,25.0,20.0,-100.00,ENE,75,7.0,16.0,78,1.69,,,-99.99,,2013-02-16 21:42:00,
2013-02-16 16:52:00,26.0,21.0,-100.00,ENE,65,4.0,11.0,81,0.00,,,-99.99,,2013-02-16 21:52:00,
2013-02-16 17:01:00,26.0,17.0,-100.00,NE,35,9.0,16.0,67,0.00,,,-99.99,,2013-02-16 22:01:00,
2013-02-16 17:11:00,26.0,17.0,-100.00,NE,40,7.0,14.0,66,0.00,,,-99.99,,2013-02-16 22:11:00,
2013-02-16 17:21:00,26.0,17.0,-100.00,ENE,75,9.0,14.0,69,0.00,,,-99.99,,2013-02-16 22:21:00,
2013-02-16 17:32:00,24.0,19.0,-100.00,ENE,60,9.0,19.0,82,5.67,,,-99.99,,2013-02-16 22:32:00,
2013-02-16 17:42:00,23.0,20.0,-100.00,ENE,70,9.0,16.0,88,0.00,,,-99.99,,2013-02-16 22:42:00,
2013-02-16 17:51:00,23.0,20.0,-100.00,ENE,65,7.0,12.0,88,2.24,,,-99.99,,2013-02-16 22:51:00,
2013-02-16 18:02:00,23.0,20.0,-100.00,NE,50,9.0,16.0,88,0.00,,,-99.99,,2013-02-16 23:02:00,
2013-02-16 18:11:00,23.0,18.0,-100.00,NE,50,7.0,16.0,81,0.00,,,-99.99,,2013-02-16 23:11:00,
2013-02-16 18:21:00,24.0,16.0,-100.00,ENE,75,9.0,16.0,72,0.00,,,-99.99,,2013-02-16 23:21:00,
2013-02-16 18:32:00,24.0,15.0,-100.00,NE,55,9.0,16.0,67,0.00,,,-99.99,,2013-02-16 23:32:00,
2013-02-16 18:42:00,24.0,15.0,-100.00,East,80,9.0,19.0,66,0.00,,,-99.99,,2013-02-16 23:42:00,
2013-02-16 18:52:00,23.0,13.0,-100.00,ENE,60,12.0,19.0,65,0.00,,,-99.99,,2013-02-16 23:52:00,
2013-02-16 19:02:00,23.0,14.0,-100.00,ENE,65,12.0,21.0,67,0.00,,,-99.99,,2013-02-17 00:02:00,
2013-02-16 19:12:00,23.0,14.0,-100.00,ENE,60,7.0,14.0,69,0.00,,,-99.99,,2013-02-17 00:12:00,
2013-02-16 19:22:00,22.0,13.0,-100.00,ENE,70,9.0,15.0,68,0.00,,,-99.99,,2013-02-17 00:22:00,
2013-02-16 19:32:00,22.0,13.0,-100.00,ENE,65,7.0,12.0,68,0.00,,,-99.99,,2013-02-17 00:32:00,
2013-02-16 19:42:00,22.0,13.0,-100.00,East,80,9.0,16.0,69,0.00,,,-99.99,,2013-02-17 00:42:00,
2013-02-16 19:52:00,22.0,14.0,-100.00,ENE,60,7.0,16.0,72,0.00,,,-99.99,,2013-02-17 00:52:00,
2013-02-16 20:01:00,21.0,14.0,-100.00,ENE,70,4.0,11.0,73,0.00,,,-99.99,,2013-02-17 01:01:00,
2013-02-16 20:11:00,21.0,14.0,-100.00,ENE,60,6.0,11.0,72,0.00,,,-99.99,,2013-02-17 01:11:00,
2013-02-16 20:21:00,21.0,13.0,-100.00,East,85,9.0,12.0,70,0.00,,,-99.99,,2013-02-17 01:21:00,
2013-02-16 20:32:00,21.0,13.0,-100.00,ENE,60,4.0,9.0,70,0.00,,,-99.99,,2013-02-17 01:32:00,
2013-02-16 20:41:00,21.0,12.0,-100.00,ENE,75,6.0,16.0,69,0.00,,,-99.99,,2013-02-17 01:41:00,
2013-02-16 20:52:00,21.0,12.0,-100.00,ENE,70,5.0,13.0,68,0.00,,,-99.99,,2013-02-17 01:52:00,
2013-02-16 21:01:00,20.0,11.0,-100.00,ENE,65,9.0,12.0,67,0.00,,,-99.99,,2013-02-17 02:01:00,
2013-02-16 21:11:00,20.0,12.0,-100.00,NE,45,4.0,12.0,69,0.00,,,-99.99,,2013-02-17 02:11:00,
2013-02-16 21:21:00,20.0,12.0,-100.00,ENE,65,7.0,15.0,71,0.55,,,-99.99,,2013-02-17 02:21:00,
2013-02-16 21:32:00,20.0,13.0,-100.00,ENE,70,7.0,12.0,73,0.00,,,-99.99,,2013-02-17 02:32:00,
2013-02-16 21:41:00,20.0,13.0,-100.00,East,80,6.0,13.0,75,0.55,,,-99.99,,2013-02-17 02:41:00,
2013-02-16 21:52:00,20.0,14.0,-100.00,East,90,10.0,15.0,77,0.55,,,-99.99,,2013-02-17 02:52:00,
2013-02-16 22:02:00,20.0,12.0,-100.00,ESE,115,9.0,22.0,71,0.00,,,-99.99,,2013-02-17 03:02:00,
2013-02-16 22:11:00,20.0,12.0,-100.00,East,85,7.0,23.0,70,0.00,,,-99.99,,2013-02-17 03:11:00,
2013-02-16 22:21:00,20.0,11.0,-100.00,East,90,5.0,12.0,68,0.00,,,-99.99,,2013-02-17 03:21:00,
2013-02-16 22:32:00,20.0,11.0,-100.00,ESE,110,9.0,13.0,68,0.00,,,-99.99,,2013-02-17 03:32:00,
2013-02-16 22:42:00,19.0,10.0,-100.00,ESE,105,11.0,17.0,67,0.00,,,-99.99,,2013-02-17 03:42:00,
2013-02-16 22:51:00,19.0,10.0,-100.00,East,95,10.0,19.0,66,0.00,,,-99.99,,2013-02-17 03:51:00,
2013-02-16 23:01:00,19.0,9.0,-100.00,East,90,17.0,22.0,65,0.00,,,-99.99,,2013-02-17 04:01:00,
2013-02-16 23:11:00,19.0,9.0,-100.00,ESE,105,9.0,21.0,64,0.00,,,-99.99,,2013-02-17 04:11:00,
2013-02-16 23:21:00,18.0,8.0,-100.00,East,85,9.0,16.0,63,0.00,,,-99.99,,2013-02-17 04:21:00,
2013-02-16 23:32:00,18.0,8.0,-100.00,East,80,11.0,17.0,64,0.00,,,-99.99,,2013-02-17 04:32:00,
2013-02-16 23:41:00,18.0,9.0,-100.00,East,80,9.0,16.0,67,0.00,,,-99.99,,2013-02-17 04:41:00,
2013-02-16 23:51:00,18.0,8.0,-100.00,ENE,75,11.0,16.0,64,0.00,,,-99.99,,2013-02-17 04:51:00,